{"data":{"norad_id":62089,"intl_designator":"2024-220B","name":"STARLINK-11379 [DTC]","alt_names":[],"object_type":"PAYLOAD","status":"ACTIVE","operator":null,"country":"US","launch_date":"2024-11-25","launch_site_code":"AFETR","launch_vehicle":null,"mission":null,"orbit_class":"UNKNOWN","rcs_meters":null,"size_class":null,"mass_kg":null,"dimensions":null,"purposes":["comms"],"wikipedia_slug":null,"has_3d_model":false,"image_url":null,"decayed_at":null,"tle_current":{"epoch":"2026-05-24T21:17:05.218944Z","epoch_age_seconds":87924,"freshness":"FRESH","line1":"1 62089U 24220B   26144.88686596  .00127264  00000+0  97862-3 0  9994","line2":"2 62089  43.0002 304.0845 0002058 271.0573  89.0059 15.70877068 86936","mean_motion":15.70877068,"eccentricity":0.0002058,"inclination_deg":43.0002,"raan_deg":304.0845,"arg_perigee_deg":271.0573,"mean_anomaly_deg":89.0059,"bstar":0.00097862,"rev_number":8693,"period_min":91.668535325515,"perigee_km":355.00315089579,"apogee_km":357.77508184529,"semimajor_km":6734.5261163705,"source":"CELESTRAK","updated_at":"2026-05-25T13:38:19.556955Z"}}}